CAPE
0 0 0 0 0 0 0 0 0 0 0 0 0 0 0 0 0 0 0 0 0 0 0 0 0 0 0 0 2 0 0 0 2 0 0 0 0 0 0 0 0 0 0
0 0 0 0 0 0 0 0 0 0 0 0 0 0 0 0 0 0 0 0 0 0 0 0 0 0 0 0 0 0 2 0 3 4 0 0 0 0 0 0 0 0 0
0 0 0 0 0 0 0 0 0 0 0 0 0 0 0 0 0 0 0 0 0 0 0 0 0 0 0 0 0 1 3 1 1 5 3 0 0 0 0 0 0 0 0
0 0 0 0 0 0 0 0 0 0 0 0 0 0 0 0 0 0 0 0 0 0 0 1 0 0 1 1 2 5 2 2 2 3 3 1 0 0 0 0 0 0 0
0 0 0 0 0 0 0 0 0 0 0 0 0 0 0 0 0 0 0 0 0 0 0 0 0 0 0 3 4 4 2 2 3 3 1 1 0 1 3 2 1 0 0
0 0 0 0 0 0 0 0 0 0 0 0 0 0 0 0 4 1 0 0 0 0 0 0 0 0 1 5 6 2 3 3 4 7 5 5 2 6 6 6 6 1 0
0 0 0 0 0 0 0 0 0 0 0 0 0 0 0 0 4 1 0 0 0 0 0 0 0 0 0 3 1 0 0 3 6 2 1 2 10 12 16 5 5 3 4
0 0 0 0 0 0 0 0 0 0 0 0 0 0 0 0 2 1 0 0 0 0 0 0 0 0 0 2 0 0 0 0 0 0 0 1 7 10 6 10 8 3 1
0 0 0 0 0 0 0 0 0 1 0 0 0 0 0 0 1 1 0 0 0 0 0 0 0 0 3 3 0 0 0 0 0 0 0 0 0 0 3 1 0 0 0
0 0 0 0 0 0 1 1 0 0 0 0 0 0 0 0 1 2 0 0 0 0 0 0 3 2 2 3 0 1 0 1 0 0 0 0 0 0 0 0 2 0 2
0 0 0 0 0 1 0 0 0 0 0 0 0 0 0 0 0 2 2 0 0 0 0 0 0 3 2 2 3 2 1 0 0 0 0 0 0 0 0 0 0 2 1
0 0 0 0 1 1 0 0 0 0 0 0 0 0 0 0 1 1 3 2 2 0 0 0 0 1 1 1 3 3 1 0 0 0 0 0 0 0 0 0 0 0 0
0 0 0 0 1 0 0 0 0 0 0 0 0 0 0 0 0 0 1 1 3 0 0 0 0 0 0 0 1 1 0 0 0 0 0 0 0 0 0 0 0 0 0
0 0 0 0 0 0 0 0 0 0 0 0 0 0 0 0 0 0 0 0 2 0 0 0 0 0 0 0 0 0 0 0 0 0 0 0 0 0 0 0 0 0 0
0 0 0 0 0 0 0 0 0 0 0 0 0 0 0 0 0 0 0 0 0 0 0 0 0 0 0 0 0 0 0 0 0 0 0 0 0 0 0 0 0 0 0
0 0 0 0 0 0 0 0 0 0 0 0 3 0 0 0 0 0 2 1 1 0 0 0 0 0 0 0 0 0 0 0 0 0 0 0 0 0 0 0 0 0 0
0 0 0 0 0 0 0 0 0 0 0 0 0 0 0 0 0 0 1 0 0 0 0 0 0 0 0 0 0 0 0 0 0 0 0 0 0 0 0 0 0 0 0
0 0 0 0 0 0 0 0 0 0 0 0 0 0 0 0 0 0 0 0 0 0 0 0 0 0 0 0 0 0 0 0 0 0 0 0 0 0 0 0 0 0 0
0 0 0 0 0 0 0 0 0 0 0 0 0 0 0 0 0 0 0 0 0 0 0 0 0 0 0 0 0 0 0 0 0 0 0 0 0 0 0 0 0 0 0
0 0 0 0 0 0 0 0 0 0 0 0 0 0 0 0 0 0 0 0 0 0 0 0 0 0 0 0 0 0 0 0 0 0 0 0 0 0 0 0 0 0 0
0 0 0 0 0 0 0 0 0 0 0 0 0 0 0 0 0 0 0 0 0 0 0 0 0 0 0 0 0 0 0 0 0 0 0 0 0 0 0 0 0 0 0
0 0 0 0 0 0 0 0 0 0 0 0 0 0 0 0 0 0 0 0 0 0 0 0 0 0 0 0 0 0 0 0 0 0 0 0 0 0 0 0 0 0 0
0 0 0 0 0 0 0 0 0 0 0 0 0 0 0 0 0 0 0 0 0 0 0 0 0 0 0 0 0 0 0 0 0 0 0 0 0 0 0 0 0 0 0
0 0 0 0 0 0 0 0 0 0 0 0 0 0 0 0 0 0 0 0 0 0 0 0 0 0 0 0 0 0 0 0 0 0 0 0 0 0 0 0 0 0 0
0 0 0 0 0 0 0 0 0 0 0 0 0 0 0 0 0 0 0 0 0 0 0 0 0 0 0 0 0 0 0 0 0 0 0 0 0 0 0 0 0 0 0
0 0 0 0 0 0 0 0 0 0 0 0 0 0 0 0 0 0 0 0 0 0 0 0 0 0 0 0 0 0 0 2 0 0 0 0 0 0 0 0 0 0 0
CIN
0 0 0 0 0 0 0 0 0 0 0 0 0 0 0 0 0 0 0 0 0 0 0 0 0 0 0 0 -2 0 0 0 0 0 0 0 0 0 0 0 0 0 0
0 0 0 0 0 0 0 0 0 0 0 0 0 0 0 0 0 0 0 0 0 0 0 0 0 0 0 0 0 0 0 0 0 0 0 0 0 0 0 0 0 0 0
0 0 0 0 0 0 0 0 0 0 0 0 0 0 0 0 0 0 0 0 0 0 0 0 0 0 0 0 0 0 0 0 0 0 0 0 0 0 0 0 0 0 0
0 0 0 0 0 0 0 0 0 0 0 0 0 0 0 0 0 0 0 0 0 0 0 0 0 0 0 0 0 0 0 0 0 0 0 0 0 0 0 0 0 0 0
0 0 0 0 0 0 0 0 0 0 0 0 0 0 0 0 0 0 0 0 0 0 0 0 0 0 0 0 0 0 0 0 0 0 0 0 0 0 0 0 0 0 0
0 0 0 0 0 0 0 0 0 0 0 0 0 0 0 0 0 0 0 0 0 0 0 0 0 0 0 0 0 0 0 0 0 0 0 0 0 0 0 0 0 0 0
0 0 0 0 0 0 0 0 0 0 0 0 0 0 0 0 0 0 0 0 0 0 0 0 0 0 0 0 0 0 0 0 0 0 0 0 0 0 0 0 0 0 0
0 0 0 0 0 0 0 0 0 0 0 0 0 0 0 0 0 0 0 0 0 0 0 0 0 0 0 0 0 0 0 0 0 0 0 0 0 0 0 0 0 0 0
0 0 0 0 0 0 0 0 0 0 0 0 0 0 0 0 0 0 0 0 0 0 0 0 0 0 0 0 0 0 0 0 0 0 0 0 0 0 0 0 0 0 0
0 0 0 0 0 0 0 0 0 0 0 0 0 0 0 0 0 0 0 0 0 0 0 0 0 0 0 0 0 0 0 0 0 0 0 0 0 0 0 0 0 0 0
0 0 0 0 0 0 0 0 0 0 0 0 0 0 0 0 0 0 0 0 0 0 0 0 0 0 0 0 0 0 0 0 0 0 0 0 0 0 0 0 0 0 0
0 0 0 0 0 0 0 0 0 0 0 0 0 0 0 0 0 0 0 0 0 0 0 0 0 0 0 0 0 0 0 0 0 0 0 0 0 0 0 0 0 0 0
0 0 0 0 0 0 0 0 0 0 0 0 0 0 0 0 0 0 0 0 0 0 0 0 0 0 0 0 0 0 0 0 0 0 0 0 0 0 0 0 0 0 0
0 0 0 0 0 0 0 0 0 0 0 0 0 0 0 0 0 0 0 0 0 0 0 0 0 0 0 0 0 0 0 0 0 0 0 0 0 0 0 0 0 0 0
0 0 0 0 0 0 0 0 0 0 0 0 0 0 0 0 0 0 0 0 0 0 0 0 0 0 0 0 0 0 0 0 0 0 0 0 0 0 0 0 0 0 0
0 0 0 0 0 0 0 0 0 0 0 0 0 0 0 0 0 0 0 0 0 0 0 0 0 0 0 0 0 0 0 0 0 0 0 0 0 0 0 0 0 0 0
0 0 0 0 0 0 0 0 0 0 0 0 0 0 0 0 0 0 0 0 0 0 0 0 0 0 0 0 0 0 0 0 0 0 0 0 0 0 0 0 0 0 0
0 0 0 0 0 0 0 0 0 0 0 0 0 0 0 0 0 0 0 0 0 0 0 0 0 0 0 0 0 0 0 0 0 0 0 0 0 0 0 0 0 0 0
0 0 0 0 0 0 0 0 0 0 0 0 0 0 0 0 0 0 0 0 0 0 0 0 0 0 0 0 0 0 0 0 0 0 0 0 0 0 0 0 0 0 0
0 0 0 0 0 0 0 0 0 0 0 0 0 0 0 0 0 0 0 0 0 0 0 0 0 0 0 0 0 0 0 0 0 0 0 0 0 0 0 0 0 0 0
0 0 0 0 0 0 0 0 0 0 0 0 0 0 0 0 0 0 0 0 0 0 0 0 0 0 0 0 0 0 0 0 0 0 0 0 0 0 0 0 0 0 0
0 0 0 0 0 0 0 0 0 0 0 0 0 0 0 0 0 0 0 0 0 0 0 0 0 0 0 0 0 0 0 0 0 0 0 0 0 0 0 0 0 0 0
0 0 0 0 0 0 0 0 0 0 0 0 0 0 0 0 0 0 0 0 0 0 0 0 0 0 0 0 0 0 0 0 0 0 0 0 0 0 0 0 0 0 0
0 0 0 0 0 0 0 0 0 0 0 0 0 0 0 0 0 0 0 0 0 0 0 0 0 0 0 0 0 0 0 0 0 0 0 0 0 0 0 0 0 0 0
0 0 0 0 0 0 0 0 0 0 0 0 0 0 0 0 0 0 0 0 0 0 0 0 0 0 0 0 0 0 0 0 0 0 0 0 0 0 0 0 0 0 0
0 0 0 0 0 0 0 0 0 0 0 0 0 0 0 0 0 0 0 0 0 0 0 0 0 0 0 0 0 0 0 0 0 0 0 0 0 0 0 0 0 0 0
Wind_Speed
5 5 6 5 5 5 5 4 4 4 4 6 7 8 8 8 7 7 5 6 7 7 6 8 8 7 5 6 5 6 6 6 6 6 7 11 12 13 12 12 14 13 13
5 5 5 5 5 5 4 4 4 5 5 7 7 8 8 8 7 7 6 6 7 7 7 7 9 7 8 7 5 6 5 6 8 13 11 8 12 13 13 15 11 11 12
5 5 5 5 5 5 4 4 4 5 6 7 6 7 8 8 7 7 7 7 7 7 7 8 8 8 7 6 4 7 6 7 7 8 9 8 9 10 13 11 12 12 10
6 5 5 5 5 4 4 4 5 5 6 6 5 6 7 8 8 7 7 7 6 7 8 8 8 8 9 10 8 9 8 8 8 9 9 9 9 11 9 13 14 11 14
7 6 5 5 5 4 4 4 5 5 5 6 6 5 5 7 8 7 7 8 6 6 8 7 8 10 13 13 7 9 9 8 9 9 8 9 10 13 14 13 15 15 14
7 7 6 5 5 4 4 4 6 6 7 8 7 6 6 7 14 14 9 7 7 6 7 7 6 8 11 14 14 15 11 10 10 9 8 10 12 12 10 13 13 14 12
8 7 6 6 5 5 5 5 6 8 7 7 6 5 5 6 15 14 12 6 7 6 8 8 7 8 9 9 13 14 12 15 13 12 11 12 14 13 13 14 14 14 13
8 7 6 6 6 5 5 6 5 6 7 6 5 5 6 7 14 14 10 6 7 7 8 8 8 11 11 13 11 10 11 11 13 10 11 12 12 13 13 13 14 16 13
8 7 6 6 6 5 6 6 5 6 6 7 6 6 7 7 13 14 8 6 7 7 7 8 9 10 16 16 9 10 10 10 15 18 19 19 19 20 18 10 10 12 13
7 8 6 6 6 5 4 4 4 4 6 6 7 7 7 6 12 13 9 5 6 5 6 7 12 12 16 17 10 10 8 11 11 11 11 13 14 14 18 12 10 10 10
9 8 8 7 6 5 4 4 4 4 7 7 7 5 5 6 8 12 13 6 6 4 4 5 6 15 16 16 15 9 11 11 12 9 8 8 8 9 8 10 12 10 10
8 8 7 7 5 5 7 3 5 5 6 6 5 4 3 5 7 10 12 10 10 4 6 5 6 14 14 15 11 17 17 12 6 7 7 8 9 9 10 11 13 12 11
9 8 7 7 5 5 6 6 4 4 4 4 4 3 2 3 3 7 10 11 12 6 6 9 12 12 13 11 16 17 11 7 7 6 8 9 10 11 13 11 11 12 13
9 8 7 7 7 5 5 4 4 3 3 4 4 3 1 1 2 1 3 4 10 8 9 6 9 10 12 9 6 9 6 6 6 6 7 8 9 9 10 11 12 13 11
8 7 6 5 6 5 4 4 4 3 4 4 3 3 2 2 3 4 4 3 3 8 5 3 4 4 5 6 6 5 6 6 7 7 7 8 9 9 8 11 9 11 11
9 7 6 5 5 5 5 4 8 7 7 7 9 6 2 2 6 7 9 9 10 9 5 3 3 3 3 4 4 5 3 6 6 7 6 7 8 9 10 10 9 10 11
8 8 6 6 5 5 3 5 4 4 3 5 3 1 3 3 6 6 8 8 8 7 3 1 1 2 2 3 3 3 3 5 4 4 5 7 7 8 10 9 10 10 11
6 8 6 4 4 4 4 3 3 4 3 2 4 1 2 5 5 5 6 6 4 5 2 1 2 3 3 3 3 2 3 5 4 4 5 6 6 6 8 9 9 10 11
6 4 4 4 3 4 4 3 3 3 2 1 3 3 6 5 4 4 5 3 2 1 1 2 3 3 3 3 3 3 3 4 4 4 4 4 5 6 8 8 9 13 13
5 8 5 5 4 3 3 4 3 2 2 2 1 3 2 3 2 2 1 1 2 3 3 4 4 4 4 3 3 3 4 3 4 3 3 4 4 4 7 8 8 9 10
4 4 6 4 4 4 4 4 3 3 3 3 3 3 7 4 3 4 3 3 4 4 4 4 4 4 4 4 3 3 3 5 4 4 4 4 3 6 6 7 8 8 9
5 5 4 4 3 3 3 3 3 3 3 3 3 3 9 2 3 4 4 4 5 5 4 4 4 4 4 4 4 4 4 5 5 3 4 4 4 5 5 6 7 8 8
5 5 4 3 3 4 3 3 3 3 3 4 4 3 3 3 3 4 5 5 4 4 4 4 4 5 4 4 4 5 5 6 5 3 4 4 5 5 4 6 7 8 8
5 5 5 4 3 3 3 4 4 5 5 5 4 4 4 4 5 6 5 5 4 5 4 4 5 6 5 5 4 5 5 6 4 6 6 5 6 6 5 6 6 8 8
5 5 5 5 5 5 4 4 5 5 5 5 5 4 4 5 5 5 5 4 4 4 5 5 4 7 9 9 8 8 8 11 7 8 4 7 9 8 7 7 7 8 8
5 5 4 4 4 4 5 5 6 5 5 5 5 5 5 5 6 5 5 4 5 5 6 5 6 9 10 8 9 10 11 11 10 14 9 7 7 6 5 6 8 6 8
Wind_Direction
118 119 107 95 86 77 76 75 75 74 64 72 76 73 64 55 45 38 46 31 55 49 39 47 37 29 33 13 7 6 2 350 303 316 321 314 319 320 327 327 323 326 325
140 125 108 99 89 82 77 78 75 76 59 90 84 79 70 60 49 51 41 32 52 52 46 50 43 30 34 17 1 359 345 326 322 314 315 321 321 327 325 324 326 319 317
136 123 111 105 103 100 97 85 74 77 77 90 88 82 79 67 61 50 48 48 51 49 47 54 43 32 24 1 352 358 342 337 326 313 312 319 317 324 328 322 327 318 315
130 120 115 114 115 115 109 93 82 80 89 97 81 76 79 77 65 58 61 49 45 55 54 66 55 28 19 7 2 356 348 341 329 328 319 322 323 334 327 331 330 327 323
136 130 130 127 121 115 104 94 88 85 79 86 78 51 63 71 68 63 62 62 41 53 51 46 52 32 17 6 4 358 352 343 341 336 327 328 333 341 343 331 321 324 323
138 137 134 127 121 112 102 94 103 94 87 82 58 36 34 63 68 58 66 60 52 46 44 35 40 30 2 1 8 360 5 352 344 337 332 330 328 327 325 326 318 323 323
137 138 137 134 131 126 113 108 108 98 90 85 78 60 14 48 58 58 60 65 58 44 46 27 23 10 349 4 5 358 1 356 2 345 332 331 322 324 325 322 319 314 305
136 138 138 135 126 120 114 111 106 113 104 98 94 67 39 43 45 51 54 64 60 45 61 33 17 11 358 12 5 352 358 352 0 346 338 324 318 326 327 324 322 308 302
137 132 134 139 136 128 130 123 121 129 123 113 101 80 60 37 45 46 43 49 54 40 54 38 11 17 12 11 12 5 358 354 348 346 341 337 338 340 339 336 334 331 327
137 132 123 126 127 122 111 106 101 106 112 111 87 69 56 33 40 38 51 44 49 34 34 28 10 22 20 14 24 11 358 354 340 338 335 340 343 340 345 345 329 326 327
124 125 126 125 120 119 112 112 119 118 113 100 89 71 57 25 28 38 40 35 57 35 32 22 3 18 23 16 22 11 3 1 339 337 330 328 333 335 336 334 331 326 313
131 126 125 126 127 124 113 97 104 108 103 107 102 81 52 26 30 32 37 40 64 57 35 13 6 19 25 16 19 13 8 2 342 337 335 339 338 337 335 330 328 322 309
129 130 131 122 115 117 127 125 120 115 122 131 112 89 53 25 3 35 32 39 53 54 36 26 28 24 25 22 10 13 10 356 348 347 344 338 331 324 324 328 326 323 315
135 140 138 131 119 117 124 124 128 131 126 131 111 101 73 330 300 313 81 66 65 55 46 24 33 35 28 23 356 3 359 356 347 342 333 325 324 332 334 336 333 337 328
138 138 132 133 124 130 119 132 132 121 140 137 148 149 139 306 278 27 52 50 122 64 76 29 19 4 4 360 357 348 348 349 351 341 334 332 333 333 332 332 333 335 336
145 146 146 143 138 142 142 131 137 143 121 118 152 159 260 294 20 23 31 30 34 44 50 44 360 345 343 337 332 333 318 342 336 332 330 329 329 329 328 329 335 340 336
152 149 141 141 151 155 145 143 135 355 156 134 104 106 27 8 22 19 24 38 34 57 80 23 329 322 288 305 295 297 300 320 303 305 320 322 322 322 328 330 336 337 336
133 132 140 147 135 131 147 150 136 158 175 272 342 22 37 0 17 15 30 49 24 23 87 171 260 267 276 275 295 278 296 309 315 312 318 315 316 321 324 329 332 335 334
136 128 127 129 136 129 122 135 142 138 151 202 336 356 11 5 347 26 60 118 156 258 252 257 231 247 262 270 273 281 271 291 295 303 293 302 312 321 320 319 319 328 331
114 139 135 129 129 138 159 153 134 134 153 198 229 236 314 53 30 328 345 136 176 234 235 237 257 251 249 246 267 267 287 288 289 284 289 297 302 300 308 313 315 321 326
137 127 143 134 164 170 151 160 172 164 190 212 232 225 225 175 216 206 222 222 220 232 235 230 248 249 253 261 263 268 264 276 267 271 285 285 294 310 304 300 300 310 317
147 154 154 166 157 151 175 161 173 184 199 213 249 273 267 117 187 228 232 236 232 227 223 220 240 233 235 238 247 256 266 274 279 257 271 278 282 288 290 298 304 313 318
148 151 159 159 160 160 171 186 189 199 218 226 225 242 242 241 230 232 239 243 237 242 233 212 235 257 240 239 227 225 242 258 255 220 263 277 283 284 283 292 299 311 318
158 165 170 182 168 184 191 206 210 220 227 234 225 225 233 234 232 238 237 237 238 244 236 232 231 244 258 255 245 239 238 253 244 255 229 247 273 284 279 285 288 296 298
161 174 184 185 194 201 197 217 220 223 227 226 237 228 230 232 236 236 235 232 237 240 250 239 234 245 257 267 267 259 253 267 257 251 226 230 252 263 263 275 287 296 294
178 182 190 182 202 201 210 219 227 221 229 232 231 232 231 232 239 237 232 223 234 240 245 241 245 252 259 260 261 264 264 265 255 248 239 229 242 252 254 259 279 285 291